CDT,Max TemperatureF,Mean TemperatureF,Min TemperatureF,Max Dew PointF,MeanDew PointF,Min DewpointF,Max Humidity, Mean Humidity, Min Humidity, Max Sea Level PressureIn, Mean Sea Level PressureIn, Min Sea Level PressureIn, Max VisibilityMiles, Mean VisibilityMiles, Min VisibilityMiles, Max Wind SpeedMPH, Mean Wind SpeedMPH, Max Gust SpeedMPH,PrecipitationIn, CloudCover, Events, WindDirDegrees
2013-6-1,70,58,46,45,43,41,77,58,36,30.15,30.00,29.82,10,10,10,33,21,41,0.00,4,,337
2013-6-2,77,58,39,46,43,38,96,59,33,30.18,30.07,29.91,10,10,10,21,8,28,0.00,0,,163
2013-6-3,92,72,51,57,50,44,77,50,26,29.91,29.73,29.59,10,10,9,28,15,38,0.00,0,,138
2013-6-4,77,68,58,59,55,49,88,66,45,30.03,29.89,29.72,10,10,9,16,11,22,T,5,,45
2013-6-5,69,59,49,52,46,43,82,64,45,30.18,30.09,29.99,10,10,2,18,12,28,0.03,6,Rain,2
2013-6-6,79,60,41,47,45,41,97,60,34,30.12,30.05,29.97,10,10,9,10,5,,0.00,1,,47
2013-6-7,85,66,46,54,47,43,86,53,26,30.04,29.93,29.77,10,10,7,17,7,23,0.00,0,,114
2013-6-8,80,67,53,58,54,49,80,64,40,29.88,29.72,29.60,10,10,10,18,11,24,T,2,Rain,43
2013-6-9,87,69,51,51,47,44,86,51,24,29.94,29.88,29.82,10,10,10,15,8,23,0.00,0,,300
2013-6-10,104,78,51,67,54,44,77,45,16,29.86,29.75,29.63,10,10,10,18,8,30,0.00,0,Thunderstorm,120
2013-6-11,108,89,69,64,51,37,58,29,10,29.79,29.59,29.44,10,9,2,36,14,50,0.00,0,,151
2013-6-12,95,78,61,64,57,51,81,52,24,30.04,29.85,29.55,10,10,10,21,15,28,0.00,0,,3
2013-6-13,88,71,54,64,55,50,90,60,33,30.12,30.02,29.87,10,9,2,17,10,24,0.10,1,Rain-Thunderstorm,116
2013-6-14,96,80,63,66,59,47,90,53,27,30.04,29.82,29.71,10,9,2,25,13,34,0.10,1,Rain-Thunderstorm,147
2013-6-15,90,76,61,62,58,48,72,52,35,29.93,29.85,29.80,10,10,10,20,7,22,0.00,0,,30
2013-6-16,91,75,59,62,56,45,93,60,23,30.06,29.97,29.87,10,9,3,21,8,39,0.08,2,Rain-Thunderstorm,115
2013-6-17,86,70,54,59,55,50,100,69,29,30.12,30.03,29.95,10,8,2,10,6,20,0.01,0,,67
2013-6-18,89,75,60,62,57,50,87,63,26,30.13,30.00,29.88,10,9,2,17,8,25,0.13,3,Rain-Thunderstorm,105
2013-6-19,91,77,62,60,58,56,84,57,34,29.92,29.83,29.74,10,10,10,23,10,36,0.00,2,,156
2013-6-20,100,84,68,64,59,45,88,51,22,29.81,29.71,29.63,10,10,7,21,15,28,T,1,Thunderstorm,168
2013-6-21,103,88,72,65,55,50,52,35,18,29.80,29.68,29.58,10,10,9,30,20,43,0.00,0,Thunderstorm,178
2013-6-22,99,81,62,65,60,54,76,49,25,29.76,29.69,29.56,10,10,7,33,16,41,0.31,2,Thunderstorm,95
2013-6-23,85,72,59,66,61,57,94,75,46,29.88,29.81,29.72,10,9,0,25,13,36,0.05,3,Fog-Rain-Thunderstorm,36
2013-6-24,96,79,61,71,61,57,90,66,29,29.95,29.74,29.57,10,8,1,36,13,69,0.29,2,Rain-Thunderstorm,110
2013-6-25,97,82,67,66,57,45,84,48,17,29.76,29.65,29.57,10,10,9,25,14,33,0.00,0,,8
2013-6-26,102,81,60,60,55,49,87,46,17,29.91,29.84,29.78,10,10,10,10,4,,0.00,0,,58
2013-6-27,94,83,71,66,62,53,71,49,34,30.04,29.91,29.83,10,10,8,20,9,28,0.00,0,,4
2013-6-28,94,79,63,66,58,49,93,55,21,30.10,30.04,29.99,10,10,6,20,8,30,0.00,0,,348
2013-6-29,89,74,59,58,53,47,80,50,31,30.06,30.02,29.96,10,10,10,20,6,25,0.00,1,,356
2013-6-30,84,69,54,54,50,46,83,51,27,30.14,30.09,30.05,10,10,8,13,6,20,0.00,0,,26